Location: Kumla
(59.1265°N, 15.1401°E)
Time: 23:00:28
(UTC+01:00)

SR - All Passes

Search period start: 06 December 2023 00:00
Search period end: 16 December 2023 00:00
Orbit: 571 x 872 km, 66.7° (Epoch: 06 December)

Date Brightness Start Highest point End Pass type
(mag) Time Alt. Az. Time Alt. Az. Time Alt. Az.
06 Dec - 10:14:10 10° SE 10:17:47 17° ESE 10:21:29 10° ENE daylight
06 Dec - 11:53:09 10° SSW 11:58:44 59° SE 12:04:32 10° NE daylight
06 Dec - 13:35:09 10° WSW 13:40:54 59° NNW 13:46:45 10° NE daylight
06 Dec - 15:18:19 10° WNW 15:23:51 40° N 15:29:23 10° ENE daylight
06 Dec - 17:01:10 10° NW 17:06:56 50° NNE 17:12:33 10° E visible
06 Dec - 18:43:27 10° NW 18:49:22 79° SW 18:55:02 10° SE visible
06 Dec - 20:26:02 10° WNW 20:30:40 25° WSW 20:35:09 10° SSW visible
07 Dec - 11:02:10 10° S 11:07:24 39° ESE 11:12:49 10° NE daylight
07 Dec - 12:43:22 10° WSW 12:49:09 77° NW 12:55:06 10° NE daylight
07 Dec - 14:26:18 10° W 14:31:53 43° NNW 14:37:30 10° ENE daylight
07 Dec - 16:09:23 10° WNW 16:15:01 43° NNE 16:20:33 10° E visible
07 Dec - 17:51:49 10° NW 17:57:46 76° NE 18:03:27 10° ESE visible
07 Dec - 19:34:07 10° NW 19:39:30 39° WSW 19:44:39 10° S visible
08 Dec - 10:11:41 10° SSE 10:16:14 25° ESE 10:20:55 10° ENE daylight
08 Dec - 11:51:47 10° SW 11:57:32 78° SE 12:03:28 10° NE daylight
08 Dec - 13:34:17 10° W 13:39:58 50° NNW 13:45:43 10° NE daylight
08 Dec - 15:17:29 10° WNW 15:23:02 40° N 15:28:32 10° ENE daylight
08 Dec - 17:00:09 10° NW 17:06:01 58° NNE 17:11:40 10° ESE visible
08 Dec - 18:42:23 10° NW 18:48:11 59° SW 18:53:41 10° SSE visible
08 Dec - 20:25:27 10° WNW 20:29:06 17° WSW 20:32:39 10° SW visible
09 Dec - 09:22:00 10° SE 09:25:14 16° ESE 09:28:31 10° ENE daylight
09 Dec - 11:00:31 10° SSW 11:06:04 53° SE 11:11:49 10° NE daylight
09 Dec - 12:42:22 10° WSW 12:48:09 62° NNW 12:54:01 10° NE daylight
09 Dec - 14:25:30 10° WNW 14:31:03 41° N 14:36:36 10° ENE daylight
09 Dec - 16:08:25 10° NW 16:14:09 48° NNE 16:19:44 10° E visible
09 Dec - 17:50:43 10° NW 17:56:40 85° SW 18:02:20 10° SE visible
09 Dec - 19:33:13 10° WNW 19:38:04 28° WSW 19:42:43 10° S visible
10 Dec - 10:09:38 10° S 10:14:46 35° ESE 10:20:03 10° NE daylight
10 Dec - 11:50:36 10° SW 11:56:25 82° NW 12:02:23 10° NE daylight
10 Dec - 13:33:28 10° W 13:39:05 44° NNW 13:44:44 10° ENE daylight
10 Dec - 15:16:35 10° WNW 15:22:12 42° N 15:27:43 10° E daylight
10 Dec - 16:59:05 10° NW 17:05:01 71° NE 17:10:42 10° ESE visible
10 Dec - 18:41:21 10° NW 18:46:51 43° WSW 18:52:05 10° SSE visible
10 Dec - 20:25:42 10° W 20:27:25 11° W 20:29:06 10° WSW visible
11 Dec - 09:19:18 10° SSE 09:23:37 23° ESE 09:28:04 10° ENE daylight
11 Dec - 10:59:06 10° SW 11:04:49 72° SE 11:10:44 10° NE daylight
11 Dec - 12:41:27 10° W 12:47:11 52° NNW 12:52:58 10° NE daylight
11 Dec - 14:24:40 10° WNW 14:30:13 40° N 14:35:43 10° ENE daylight
11 Dec - 16:07:24 10° NW 16:13:13 55° NNE 16:18:51 10° ESE visible
11 Dec - 17:49:38 10° NW 17:55:28 65° SW 18:01:01 10° SSE visible
11 Dec - 19:32:31 10° WNW 19:36:30 19° WSW 19:40:22 10° SSW visible
12 Dec - 08:29:55 10° SE 08:32:40 14° ESE 08:35:26 10° ENE daylight
12 Dec - 10:07:54 10° SSW 10:13:24 48° SE 10:19:03 10° NE daylight
12 Dec - 11:49:33 10° WSW 11:55:22 67° NNW 12:01:16 10° NE daylight
12 Dec - 13:32:39 10° WNW 13:38:14 41° N 13:43:46 10° ENE daylight
12 Dec - 15:15:39 10° WNW 15:21:20 46° NNE 15:26:52 10° E daylight
12 Dec - 16:57:59 10° NW 17:03:56 89° NE 17:09:35 10° SE visible
12 Dec - 18:40:24 10° WNW 18:45:26 31° WSW 18:50:14 10° S visible
13 Dec - 09:17:07 10° S 09:22:07 32° ESE 09:27:15 10° ENE daylight
13 Dec - 10:57:50 10° SW 11:03:40 88° NW 11:09:37 10° NE daylight
13 Dec - 12:40:37 10° W 12:46:16 46° NNW 12:51:55 10° ENE daylight
13 Dec - 14:23:47 10° WNW 14:29:23 41° N 14:34:51 10° ENE daylight
13 Dec - 16:06:19 10° NW 16:12:14 67° NNE 16:17:53 10° ESE visible
13 Dec - 17:48:35 10° NW 17:54:11 47° SW 17:59:29 10° SSE visible
13 Dec - 19:32:21 10° WNW 19:34:51 13° WSW 19:37:17 10° SW visible
14 Dec - 08:26:57 10° SSE 08:31:00 20° ESE 08:35:09 10° ENE daylight
14 Dec - 10:06:24 10° SSW 10:12:06 66° SE 10:17:58 10° NE daylight
14 Dec - 11:48:37 10° WSW 11:54:23 55° NNW 12:00:10 10° NE daylight
14 Dec - 13:31:49 10° WNW 13:37:22 40° N 13:42:51 10° ENE daylight
14 Dec - 15:14:37 10° NW 15:20:25 52° NNE 15:26:00 10° E daylight
14 Dec - 16:56:53 10° NW 17:02:45 71° SW 17:08:18 10° SE visible
14 Dec - 18:39:37 10° WNW 18:43:53 22° WSW 18:48:00 10° SSW visible
15 Dec - 07:38:00 10° ESE 07:40:04 12° ESE 07:42:10 10° E visible
15 Dec - 09:15:17 10° SSW 09:20:42 44° ESE 09:26:16 10° NE daylight
15 Dec - 10:56:44 10° WSW 11:02:34 71° NW 11:08:29 10° NE daylight
15 Dec - 12:39:47 10° W 12:45:23 42° N 12:50:56 10° ENE daylight
15 Dec - 14:22:50 10° WNW 14:28:30 44° NNE 14:34:00 10° E daylight
15 Dec - 16:05:14 10° NW 16:11:10 83° NE 16:16:48 10° SE visible
15 Dec - 17:47:35 10° NW 17:52:46 34° WSW 17:57:42 10° S visible
